W0VIP Weather Reports


Display with metric or nautical units.
time (UTC)temp
F
wind
direction
speed
MPH
gust
MPH
rain 1hr
in
rain 24hr
in
rain mn
in
humidity
%
barometer
mb
20260505125041 57 70 1.0 5.0 0.00 0.70 0.70 100 1008.9
20260505124053 57 96 1.0 6.0 0.00 0.70 0.70 100 1008.6
20260505123051 57 10 2.0 6.0 0.00 0.70 0.70 100 1008.7
20260505122049 58 66 1.0 4.0 0.00 0.70 0.70 100 1008.7
20260505121038 59 329 1.0 5.0 0.00 0.70 0.70 100 1008.1
20260505120030 60 127 1.0 4.0 0.00 0.70 0.70 100 1007.9
20260505115028 60 15 1.0 5.0 0.00 0.70 0.70 100 1007.7
20260505114046 61 55 0.0 1.0 0.00 0.70 0.70 100 1007.9
20260505113044 61 2 0.0 1.0 0.00 0.70 0.70 100 1007.7
20260505112047 61 2 0.0 1.0 0.02 0.70 0.70 100 1007.4
20260505111038 61 112 1.0 4.0 0.04 0.70 0.70 100 1007.5
20260505102100 61 124 0.0 1.0 0.16 0.68 0.68 100 1007.7
20260505101115 61 124 1.0 5.0 0.15 0.66 0.66 100 1007.9
20260505100032 61 123 1.0 5.0 0.14 0.63 0.63 100 1008.2
20260505095033 61 138 1.0 5.0 0.14 0.59 0.59 100 1007.6
20260505094039 61 131 1.0 6.0 0.16 0.57 0.57 100 1007.1
20260505093048 62 114 1.0 4.0 0.16 0.53 0.53 100 1007.0
20260505092056 62 265 1.0 10.0 0.17 0.52 0.52 100 1006.8
20260505091035 62 194 2.0 9.0 0.17 0.51 0.51 100 1006.6
20260505090037 62 100 3.0 9.0 0.16 0.49 0.49 100 1007.2
20260505085042 62 221 1.0 9.0 0.12 0.45 0.45 100 1007.3
20260505084048 62 222 3.0 11.0 0.09 0.41 0.41 100 1007.1
20260505083030 62 113 2.0 6.0 0.06 0.37 0.37 100 1006.8
20260505082030 62 139 2.0 5.0 0.05 0.35 0.35 100 1006.4
20260505081051 62 199 2.0 7.0 0.06 0.34 0.34 100 1006.5
20260505080046 62 186 2.0 9.0 0.09 0.33 0.33 100 1006.3
20260505075038 62 58 2.0 8.0 0.12 0.33 0.33 100 1006.5
20260505074030 62 142 1.0 8.0 0.15 0.32 0.32 100 1007.4
20260505073114 62 51 3.0 6.0 0.18 0.31 0.31 99 1008.5
20260505072058 62 180 0.0 2.0 0.21 0.30 0.30 98 1009.0
20260505071051 62 180 1.0 6.0 0.21 0.27 0.27 98 1008.8
20260505070045 63 194 0.0 5.0 0.21 0.24 0.24 96 1009.7
20260505065111 63 299 1.0 7.0 0.21 0.21 0.21 95 1009.9
20260505064030 63 227 2.0 9.0 0.17 0.17 0.17 93 1010.0
20260505063032 63 213 3.0 10.0 0.13 0.13 0.13 90 1010.3
20260505062029 64 147 3.0 10.0 0.09 0.09 0.09 86 1009.9
20260505061034 65 236 2.0 6.0 0.06 0.06 0.06 83 1008.9
20260505060044 66 109 2.0 7.0 0.03 0.03 0.03 77 1008.4
20260505055044 67 18 0.0 5.0 0.00 0.00 0.00 73 1008.2
20260505054029 68 180 1.0 7.0 0.00 0.00 0.00 67 1007.8
20260505053027 68 241 1.0 5.0 0.00 0.00 0.00 67 1007.3
20260505052029 68 268 1.0 7.0 0.00 0.00 0.00 66 1007.2
20260505051044 68 140 2.0 6.0 0.00 0.00 0.00 66 1007.3
20260505041029 67 235 1.0 5.0 0.00 0.00 0.00 68 1007.4
20260505040046 67 162 2.0 6.0 0.00 0.00 0.00 68 1007.5
20260505035058 67 94 2.0 6.0 0.00 0.00 0.00 68 1007.9
20260505034030 68 138 0.0 5.0 0.00 0.00 0.00 67 1008.2
20260505033042 68 119 1.0 6.0 0.00 0.00 0.00 66 1008.0
20260505032048 68 158 1.0 5.0 0.00 0.00 0.00 66 1007.9
20260505031032 68 210 0.0 4.0 0.00 0.00 0.00 66 1008.0
20260505030038 69 184 2.0 5.0 0.00 0.00 0.00 65 1008.1
20260505025053 69 94 1.0 7.0 0.00 0.00 0.00 65 1008.0
20260505024038 69 244 1.0 7.0 0.00 0.00 0.00 63 1008.1
20260505023031 70 148 1.0 3.0 0.00 0.00 0.00 61 1008.1
20260505022055 70 197 1.0 5.0 0.00 0.00 0.00 60 1007.9
20260505021027 71 197 0.0 7.0 0.00 0.00 0.00 59 1007.9
20260505020032 71 227 1.0 3.0 0.00 0.00 0.00 58 1007.7
20260505015033 71 219 2.0 7.0 0.00 0.00 0.00 57 1007.6
20260505014247 71 196 1.0 2.0 0.00 0.00 0.00 58 1007.6
20260505013226 72 237 2.0 7.0 0.00 0.00 0.00 57 1007.6
20260505012030 72 228 2.0 11.0 0.00 0.00 0.00 56 1007.5
20260505011026 72 230 5.0 9.0 0.00 0.00 0.00 56 1007.5
20260505010049 73 170 3.0 7.0 0.00 0.00 0.00 55 1007.5
20260505005054 73 198 2.0 10.0 0.00 0.00 0.00 54 1007.3
20260505004030 74 180 1.0 8.0 0.00 0.00 0.00 54 1007.2
20260505003027 74 223 3.0 10.0 0.00 0.00 0.00 54 1007.4
20260505002115 74 185 2.0 8.0 0.00 0.00 0.00 54 1007.3
20260505001046 75 194 5.0 13.0 0.00 0.00 0.00 54 1007.1
20260505000037 75 180 1.0 11.0 0.00 0.00 0.00 54 1006.9
20260504235036 76 244 2.0 6.0 0.00 0.00 0.00 53 1006.9
20260504234050 76 215 3.0 10.0 0.00 0.00 0.00 51 1006.9
20260504233050 76 245 5.0 9.0 0.00 0.00 0.00 50 1006.9
20260504232025 77 232 3.0 13.0 0.00 0.00 0.00 49 1006.8
20260504231055 77 226 4.0 10.0 0.00 0.00 0.00 50 1006.9
20260504230050 77 199 3.0 13.0 0.00 0.00 0.00 50 1006.9
20260504225052 78 229 5.0 15.0 0.00 0.00 0.00 49 1006.7
20260504224039 78 242 3.0 12.0 0.00 0.00 0.00 47 1006.6
20260504223042 79 248 3.0 13.0 0.00 0.00 0.00 47 1006.7
20260504222031 79 234 5.0 11.0 0.00 0.00 0.00 47 1006.6
20260504221038 79 155 6.0 15.0 0.00 0.00 0.00 45 1006.6
20260504220032 79 216 5.0 13.0 0.00 0.00 0.00 47 1006.7
20260504215045 79 175 6.0 10.0 0.00 0.00 0.00 45 1006.8
20260504214118 80 248 6.0 11.0 0.00 0.00 0.00 46 1006.7
20260504213054 80 180 4.0 9.0 0.00 0.00 0.00 47 1006.7
20260504212050 80 332 5.0 11.0 0.00 0.00 0.00 48 1006.8
20260504211040 80 94 5.0 19.0 0.00 0.00 0.00 46 1006.9
20260504210026 80 135 6.0 15.0 0.00 0.00 0.00 45 1006.9
20260504205106 80 305 6.0 16.0 0.00 0.00 0.00 44 1007.2
20260504204047 81 215 6.0 14.0 0.00 0.00 0.00 45 1007.3
20260504203029 80 258 6.0 19.0 0.00 0.00 0.00 44 1007.5
20260504202109 80 257 8.0 16.0 0.00 0.00 0.00 43 1007.5
20260504201039 81 120 5.0 19.0 0.00 0.00 0.00 44 1007.6
20260504200050 80 236 6.0 18.0 0.00 0.00 0.00 45 1007.7
20260504195035 80 278 8.0 20.0 0.00 0.00 0.00 45 1007.8
20260504194048 80 211 7.0 16.0 0.00 0.00 0.00 47 1008.1
20260504193023 80 233 5.0 15.0 0.00 0.00 0.00 45 1008.2
20260504192050 80 170 4.0 12.0 0.00 0.00 0.00 46 1008.3
20260504191040 79 253 5.0 16.0 0.00 0.00 0.00 47 1008.2
20260504190040 79 184 5.0 14.0 0.00 0.00 0.00 45 1008.2
20260504185040 79 292 6.0 13.0 0.00 0.00 0.00 45 1008.1
20260504184104 79 285 6.0 14.0 0.00 0.00 0.00 45 1008.1
20260504183026 79 210 6.0 14.0 0.00 0.00 0.00 44 1008.3
20260504182034 78 110 7.0 18.0 0.00 0.00 0.00 46 1008.2
20260504181059 79 255 4.0 15.0 0.00 0.00 0.00 47 1008.4
20260504180030 78 257 5.0 14.0 0.00 0.00 0.00 47 1008.5
20260504175111 77 242 9.0 21.0 0.00 0.00 0.00 45 1008.6
20260504174031 78 245 7.0 20.0 0.00 0.00 0.00 47 1008.5
20260504173031 77 248 3.0 20.0 0.00 0.00 0.00 49 1008.8
20260504172104 77 235 5.0 14.0 0.00 0.00 0.00 47 1008.8
20260504171032 76 238 5.0 15.0 0.00 0.00 0.00 48 1008.9
20260504151053 71 242 6.0 19.0 0.00 0.00 0.00 51 1009.7
20260504141038 68 263 5.0 14.0 0.00 0.00 0.00 54 1010.5